"2009-10-23 00:00:00",1351006,1.773,67.65,9.16,1.305,7.474,102.1356,4.749,6.04,57,0,109.9,13.44,5.52,29.7
"2009-10-23 00:00:30",1351007,1.599,61.22,8.64,1.244,6.767,102.1353,4.749,5.983,57.09,0,109.9,13.44,5.52,23.2
"2009-10-23 00:01:00",1351008,0.37,50.48,5.246,0.051,3.931,102.1209,4.712,5.836,57.12,0,109.9,13.48,5.48,12.5
"2009-10-23 00:01:30",1351009,0.428,53.47,4.177,0.045,3.665,102.1023,4.664,5.8,57.33,0,109.9,13.48,5.43,15.5
"2009-10-23 00:02:00",1351010,0.384,39.29,8.74,0.094,3.788,102.1017,4.663,5.791,57.48,0,109.9,13.48,5.43,1.3
"2009-10-23 00:02:30",1351011,0.343,18.33,8.7,0.067,4.2,102.1031,4.667,5.77,57.46,0,109.9,13.48,5.43,340.3
"2009-10-23 00:03:00",1351012,1.235,10.25,12.26,1.19,6.151,102.1032,4.667,5.813,57.43,0,109.9,13.45,5.44,332.2
"2009-10-23 00:03:30",1351013,1.576,8.36,8.48,1.132,6.367,102.0913,4.636,5.855,57.53,0,109.9,13.45,5.40,330.4
"2009-10-23 00:04:00",1351014,2.957,5.517,6.57,1.134,9.92,102.0764,4.598,6.056,57.77,0,109.9,13.45,5.37,327.5
"2009-10-23 00:04:30",1351015,2.564,3.875,6.945,1.234,8.57,102.0759,4.597,5.878,57.82,0,110,13.45,5.37,325.9
"2009-10-23 00:05:00",1351016,1.883,1.404,5.623,1.257,6.95,102.0745,4.593,5.786,57.83,0,109.9,13.45,5.36,323.4
"2009-10-23 00:05:30",1351017,1.548,355,5.077,0.948,4.859,102.0599,4.556,5.747,57.91,0,109.9,13.45,5.32,317.0
"2009-10-23 00:06:00",1351018,1.81,350.3,9.34,1.092,5.852,102.0509,4.533,5.746,58.05,0,109.9,13.45,5.30,312.3
"2009-10-23 00:06:30",1351019,1.21,344.6,1.966,0.056,4.555,102.0572,4.549,5.635,58.13,0,109.9,13.48,5.32,306.6
"2009-10-23 00:07:00",1351020,2.134,348.3,6.888,1.199,6.895,102.0556,4.545,5.755,58.48,0,109.9,13.44,5.31,310.3
"2009-10-23 00:07:30",1351021,1.89,344.4,5.392,1.162,6.378,102.044,4.516,5.745,58.64,0,109.9,13.45,5.28,306.4
"2009-10-23 00:08:00",1351022,3.29,345,5.43,1.184,8.96,102.0337,4.489,5.804,58.84,0,109.9,13.44,5.26,307.0
"2009-10-23 00:08:30",1351023,2.908,340.3,6.456,1.288,7.895,102.0311,4.483,5.738,58.89,0,109.9,13.44,5.25,302.3
"2009-10-23 00:09:00",1351024,1.833,337.7,3.707,0.498,5.627,102.032,4.485,5.59,58.86,0,109.9,13.48,5.25,299.7
"2009-10-23 00:09:30",1351025,3.002,342.7,5.148,1.17,6.553,102.0278,4.474,5.566,59.02,0,109.9,13.45,5.24,304.7
"2009-10-23 00:10:00",1351026,3.344,349.7,7.391,1.278,7.417,102.0077,4.423,5.683,59.24,0,109.9,13.44,5.19,311.7
"2009-10-23 00:10:30",1351027,3.389,349.8,7.17,1.273,7.313,102.0007,4.405,5.609,59.25,0,109.9,13.45,5.17,311.8
"2009-10-23 00:11:00",1351028,3.336,349.3,6.131,1.34,7.385,102.0007,4.405,5.681,59.37,0,109.9,13.46,5.17,311.3
"2009-10-23 00:11:30",1351029,4.257,353,6.707,1.208,8.83,102.0007,4.405,5.708,59.4,0,109.9,13.46,5.17,315.0
"2009-10-23 00:12:00",1351030,3.784,348.7,7.837,1.244,7.854,102.0007,4.405,5.675,59.43,0,109.9,13.46,5.17,310.7
"2009-10-23 00:12:30",1351031,3.154,345.2,5.502,1.027,6.608,102.0004,4.404,5.541,59.33,0,109.9,13.46,5.17,307.2
"2009-10-23 00:13:00",1351032,3.983,348.8,6.974,1.274,7.421,101.9947,4.39,5.529,59.34,0,109.9,13.46,5.16,310.8
"2009-10-23 00:13:30",1351033,3.386,345.3,6.125,1.071,6.435,101.9905,4.379,5.599,59.42,0,109.9,13.46,5.15,307.3
"2009-10-23 00:14:00",1351034,4.355,351.7,6.672,1.28,8.76,101.9795,4.351,5.616,59.39,0,109.9,13.46,5.12,313.7
"2009-10-23 00:14:30",1351035,4.435,352.8,6.502,1.17,9.09,101.9699,4.326,5.629,59.4,0,109.9,13.46,5.09,314.8
"2009-10-23 00:15:00",1351036,4.437,349.5,7.055,1.231,8.88,101.9673,4.32,5.67,59.39,0,109.9,13.46,5.09,311.5
"2009-10-23 00:15:30",1351037,4.117,345.3,7.219,1.217,8.5,101.9668,4.318,5.602,59.15,0,109.9,13.46,5.09,307.3
"2009-10-23 00:16:00",1351038,2.936,336.2,4.452,0.829,5.515,101.9668,4.318,5.401,59.04,0,109.9,13.46,5.09,298.2
"2009-10-23 00:16:30",1351039,2.639,332.8,3.672,0.798,5.319,101.9668,4.318,5.396,59.27,0,109.9,13.46,5.09,294.8
"2009-10-23 00:17:00",1351040,2.948,340.3,7.713,1.2,7.816,101.9668,4.318,5.661,59.62,0,109.9,13.46,5.09,302.3
"2009-10-23 00:17:30",1351041,3.522,342.2,7.39,1.241,8.73,101.9668,4.318,5.595,59.44,0,109.9,13.46,5.09,304.2
"2009-10-23 00:18:00",1351042,2.873,345.3,5.1,1.167,7.027,101.9668,4.318,5.507,59.32,0,109.9,13.47,5.09,307.3
"2009-10-23 00:18:30",1351043,3.439,347.3,7.457,1.232,8.38,101.9668,4.318,5.581,59.68,0,109.9,13.46,5.09,309.3
"2009-10-23 00:19:00",1351044,1.776,335.1,3.85,0.552,5.545,101.9668,4.318,5.518,59.9,0,109.9,13.47,5.09,297.1
"2009-10-23 00:19:30",1351045,2.27,341.7,4.473,1.057,5.785,101.9668,4.318,5.442,60,0,109.9,13.46,5.09,303.7
"2009-10-23 00:20:00",1351046,1.924,339.4,2.879,0.079,4.895,101.9668,4.318,5.403,60.09,0,109.9,13.5,5.09,301.4
"2009-10-23 00:20:30",1351047,2.642,345.8,5.69,0.955,6.543,101.967,4.319,5.536,60.29,0,109.9,13.47,5.09,307.8
"2009-10-23 00:21:00",1351048,3.689,352.3,6.682,1.18,9.39,101.9668,4.318,5.653,60.36,0,109.9,13.47,5.09,314.3
"2009-10-23 00:21:30",1351049,3.306,346.7,7.534,1.251,8.54,101.9673,4.32,5.564,60.18,0,109.9,13.47,5.09,308.7
"2009-10-23 00:22:00",1351050,2.55,337.7,5.875,1.169,7.234,101.9685,4.323,5.656,60.08,0,109.9,13.47,5.09,299.7
"2009-10-23 00:22:30",1351051,3.031,338,6.323,1.325,7.084,101.9717,4.331,5.49,59.68,0,109.9,13.46,5.10,300.0
"2009-10-23 00:23:00",1351052,2.058,333.7,4.476,0.785,5.723,101.9754,4.34,5.566,59.52,0,109.9,13.46,5.11,295.7
"2009-10-23 00:23:30",1351053,1.824,332.4,1.201,0.034,4.904,101.98,4.352,5.44,59.19,0,109.9,13.5,5.12,294.4
"2009-10-23 00:24:00",1351054,1.872,332.3,1.648,0.446,5.128,101.9832,4.36,5.407,59.16,0,109.8,13.47,5.13,294.3
"2009-10-23 00:24:30",1351055,3.351,340.7,6.151,1.201,8.56,101.9843,4.363,5.618,59.38,0,109.8,13.47,5.13,302.7
"2009-10-23 00:25:00",1351056,3.665,342.9,5.526,1.036,9.48,101.9887,4.374,5.747,59.57,0,109.8,13.47,5.14,304.9
"2009-10-23 00:25:30",1351057,2.651,338.6,6.849,1.211,7.849,101.9927,4.385,5.671,59.58,0,109.8,13.47,5.15,300.6
"2009-10-23 00:26:00",1351058,2.83,340,7.57,1.268,7.169,101.9973,4.396,5.513,59.51,0,109.8,13.47,5.16,302.0
"2009-10-23 00:26:30",1351059,2.143,334,6.146,1.088,6.295,101.9979,4.398,5.58,59.7,0,109.8,13.46,5.17,296.0
"2009-10-23 00:27:00",1351060,1.282,329,1.307,0.055,4.809,102.0011,4.406,5.431,59.6,0,109.8,13.5,5.17,291.0
"2009-10-23 00:27:30",1351061,1.246,333.2,1.297,0.039,4.861,102.0011,4.406,5.431,59.38,0,109.8,13.51,5.17,295.2
"2009-10-23 00:28:00",1351062,1.444,335.9,4.161,0.799,5.579,102.0011,4.406,5.413,59.33,0,109.8,13.48,5.17,297.9
"2009-10-23 00:28:30",1351063,2.848,344.2,7.667,1.277,8.76,102.0014,4.407,5.692,59.44,0,109.8,13.48,5.17,306.2
"2009-10-23 00:29:00",1351064,3.266,346.9,5.836,1.039,9.55,102.0014,4.407,5.684,59.06,0,109.8,13.48,5.17,308.9
"2009-10-23 00:29:30",1351065,2.882,342.4,6.97,1.232,7.445,102.0014,4.407,5.473,58.88,0,109.8,13.48,5.17,304.4
"2009-10-23 00:30:00",1351066,1.776,333.1,4.913,1.049,6.101,102.0014,4.407,5.572,59.31,0,109.8,13.48,5.17,295.1
"2009-10-23 00:30:30",1351067,1.926,331.2,6.34,1.176,5.791,102.0014,4.407,5.433,59.43,0,109.8,13.48,5.17,293.2
"2009-10-23 00:31:00",1351068,1.074,327.5,2.1,0.047,4.482,102.0014,4.407,5.402,59.2,0,109.8,13.51,5.17,289.5
"2009-10-23 00:31:30",1351069,0.993,332.4,1.898,0.004,4.615,102.0014,4.407,5.409,58.8,0,109.8,13.52,5.17,294.4
"2009-10-23 00:32:00",1351070,1.465,338,4.256,0.885,5.447,102.0014,4.407,5.415,58.54,0,109.9,13.48,5.17,300.0
"2009-10-23 00:32:30",1351071,2.829,340.6,6.606,1.264,8.45,102.0011,4.406,5.659,58.53,0,109.8,13.48,5.17,302.6
"2009-10-23 00:33:00",1351072,2.694,335.3,6.904,1.23,8.14,101.9974,4.397,5.642,58.87,0,109.8,13.48,5.16,297.3
"2009-10-23 00:33:30",1351073,3.117,337,5.828,1.185,7.811,101.9937,4.387,5.527,59.44,0,109.8,13.48,5.15,299.0
"2009-10-23 00:34:00",1351074,2.65,334.9,5.742,1.262,6.87,101.9869,4.37,5.585,59.89,0,109.8,13.48,5.14,296.9
"2009-10-23 00:34:30",1351075,2.863,338.7,5.773,1.155,7.055,101.9801,4.353,5.461,60.03,0,109.8,13.48,5.12,300.7
"2009-10-23 00:35:00",1351076,1.969,333.7,1.145,0.017,4.96,101.9697,4.326,5.39,60.17,0,109.8,13.52,5.09,295.7
"2009-10-23 00:35:30",1351077,1.931,337.7,1.495,0.037,5.256,101.9674,4.32,5.389,60.18,0,109.8,13.52,5.09,299.7
"2009-10-23 00:36:00",1351078,3.63,345.2,6.911,1.223,8.97,101.9674,4.32,5.645,60.4,0,109.8,13.49,5.09,307.2
"2009-10-23 00:36:30",1351079,2.856,338.3,6.825,1.157,7.508,101.9674,4.32,5.598,60.44,0,109.8,13.49,5.09,300.3
"2009-10-23 00:37:00",1351080,2.879,331.5,4.811,1.11,5.848,101.9674,4.32,5.419,60.4,0,109.8,13.49,5.09,293.5
"2009-10-23 00:37:30",1351081,4.284,337.7,5.461,1.147,9.01,101.9674,4.32,5.605,60.59,0,109.8,13.49,5.09,299.7
"2009-10-23 00:38:00",1351082,3.369,332.1,5.739,1.031,6.63,101.9674,4.32,5.544,60.46,0,109.8,13.49,5.09,294.1
"2009-10-23 00:38:30",1351083,2.831,327.1,1.205,0.118,5.428,101.9674,4.32,5.384,60.12,0,109.8,13.52,5.09,289.1
"2009-10-23 00:39:00",1351084,3.971,332.5,6.173,1.299,7.547,101.9674,4.32,5.535,60.29,0,109.8,13.49,5.09,294.5
"2009-10-23 00:39:30",1351085,4.417,336.6,6.47,1.187,9.25,101.9674,4.32,5.636,60.42,0,109.8,13.49,5.09,298.6
"2009-10-23 00:40:00",1351086,3.43,330.9,6.985,1.066,6.978,101.9674,4.32,5.453,60.22,0,109.8,13.49,5.09,292.9
"2009-10-23 00:40:30",1351087,3.613,340.6,7.645,1.483,7.603,101.9674,4.32,5.554,60.22,0,109.8,13.48,5.09,302.6
"2009-10-23 00:41:00",1351088,5.263,350.9,13.66,1.179,9.75,101.9674,4.32,5.541,59.91,0,109.8,13.48,5.09,312.9
"2009-10-23 00:41:30",1351089,3.697,341.4,7.703,1.202,7.599,101.9677,4.321,5.503,59.6,0,109.8,13.48,5.09,303.4
"2009-10-23 00:42:00",1351090,3.236,338.9,6.066,0.969,6.838,101.9695,4.325,5.425,59.57,0,109.8,13.49,5.09,300.9
"2009-10-23 00:42:30",1351091,4.395,348.6,6.409,1.255,8.89,101.9706,4.328,5.618,59.81,0,109.8,13.48,5.10,310.6
"2009-10-23 00:43:00",1351092,3.779,347,6.019,1.28,8.1,101.9718,4.331,5.542,59.77,0,109.8,13.49,5.10,309.0
"2009-10-23 00:43:30",1351093,2.639,342.5,1.1,0.037,5.599,101.9732,4.335,5.401,59.74,0,109.8,13.52,5.10,304.5
"2009-10-23 00:44:00",1351094,3.594,348.4,6.527,1.191,7.664,101.9729,4.334,5.593,59.97,0,109.8,13.49,5.10,310.4
"2009-10-23 00:44:30",1351095,4.714,354,5.759,1.085,9.38,101.9789,4.349,5.619,59.99,0,109.8,13.49,5.12,316.0
"2009-10-23 00:45:00",1351096,3.456,347.2,5.522,1.123,7.313,101.9916,4.382,5.449,59.77,0,109.8,13.49,5.15,309.2
"2009-10-23 00:45:30",1351097,4.358,353.8,6.753,1.243,8.64,102.0016,4.407,5.592,59.88,0,109.8,13.49,5.17,315.8
"2009-10-23 00:46:00",1351098,4.394,355.2,6.922,1.245,8.71,102.0061,4.419,5.646,59.98,0,109.8,13.49,5.19,317.2
"2009-10-23 00:46:30",1351099,3.101,356.9,6.188,1.36,6.865,102.012,4.434,5.501,59.62,0,109.8,13.49,5.20,318.9
"2009-10-23 00:47:00",1351100,2.932,4.924,3.463,0.466,5.609,102.0123,4.435,5.438,58.24,0,109.8,13.52,5.20,326.9
"2009-10-23 00:47:30",1351101,3.428,16.72,10.13,1.563,7.473,102.0123,4.435,5.531,57.42,0,109.8,13.49,5.20,338.7
"2009-10-23 00:48:00",1351102,3.684,7.777,10.3,1.274,9.77,102.018,4.449,5.694,57.49,0,109.8,13.49,5.22,329.8
"2009-10-23 00:48:30",1351103,1.755,7.195,10.76,1.472,7.764,102.035,4.492,5.66,57.69,0,109.8,13.5,5.26,329.2
"2009-10-23 00:49:00",1351104,2.743,9.06,13.85,1.419,9.32,102.048,4.526,5.728,57.63,0,109.8,13.49,5.29,331.1
"2009-10-23 00:49:30",1351105,2.863,1.07,12.44,1.282,8.21,102.0497,4.53,5.716,57.58,0,109.8,13.49,5.30,323.1
"2009-10-23 00:50:00",1351106,2.175,350.6,3.084,0.215,5.152,102.0511,4.534,5.517,57.7,0,109.8,13.52,5.30,312.6
"2009-10-23 00:50:30",1351107,2.396,344.9,3.763,0.18,4.881,102.0477,4.525,5.539,57.89,0,109.8,13.53,5.29,306.9
"2009-10-23 00:51:00",1351108,3.134,346.1,5.647,1.237,6.487,102.0579,4.551,5.558,58.17,0,109.8,13.5,5.32,308.1
"2009-10-23 00:51:30",1351109,2.888,341.3,6.613,1.067,7.308,102.0749,4.594,5.717,58.6,0,109.8,13.5,5.36,303.3
"2009-10-23 00:52:00",1351110,3.938,357.8,11.84,1.186,10,102.088,4.628,5.807,58.88,0,109.8,13.5,5.40,319.8
"2009-10-23 00:52:30",1351111,3.822,1.165,10.77,0.997,10.69,102.088,4.628,5.885,58.83,0,109.8,13.5,5.40,323.2
"2009-10-23 00:53:00",1351112,2.845,1.007,8.67,1.404,8.03,102.088,4.628,5.745,58.56,0,109.8,13.5,5.40,323.0
"2009-10-23 00:53:30",1351113,1.298,357.1,15.73,0.578,5.104,102.0894,4.631,5.631,58.14,0,109.8,13.53,5.40,319.1
"2009-10-23 00:54:00",1351114,2.055,349.1,2.519,0.163,4.735,102.0928,4.64,5.64,57.74,0,109.8,13.53,5.41,311.1
"2009-10-23 00:54:30",1351115,2.175,349.4,1.358,0.156,5.191,102.1035,4.668,5.636,57.95,0,109.8,13.53,5.44,311.4
"2009-10-23 00:55:00",1351116,3.337,356.3,6.803,1.244,8.18,102.1092,4.682,5.819,58.33,0,109.8,13.5,5.45,318.3
"2009-10-23 00:55:30",1351117,2.951,349.6,5.278,1.234,8.53,102.1206,4.711,5.827,58.43,0,109.8,13.5,5.48,311.6
"2009-10-23 00:56:00",1351118,4.199,350.8,3.805,0.796,10.78,102.1262,4.726,6.009,58.7,0,109.8,13.5,5.49,312.8
"2009-10-23 00:56:30",1351119,4.034,345.4,6.536,1.043,9.62,102.1285,4.731,5.915,58.66,0,109.8,13.49,5.50,307.4
"2009-10-23 00:57:00",1351120,2.17,332.1,3.616,0.093,5.504,102.1282,4.731,5.773,58.18,0,109.8,13.53,5.50,294.1
"2009-10-23 00:57:30",1351121,2.266,330,1.325,0.069,4.986,102.1262,4.725,5.725,57.79,0,109.8,13.53,5.49,292.0
"2009-10-23 00:58:00",1351122,2.482,332.8,1.237,0.047,5.094,102.1291,4.733,5.727,57.53,0,109.8,13.53,5.50,294.8
"2009-10-23 00:58:30",1351123,3.788,341.7,7.366,1.299,8.22,102.1288,4.732,5.89,57.35,0,109.8,13.49,5.50,303.7
"2009-10-23 00:59:00",1351124,3.749,344.5,6.687,1.258,9.15,102.1282,4.731,5.958,57.24,0,109.8,13.49,5.50,306.5
"2009-10-23 00:59:30",1351125,4.817,348.9,3.009,0.521,11.05,102.13,4.735,5.995,57.36,0,109.8,13.5,5.50,310.9
"2009-10-23 01:00:00",1351126,4.208,342.4,6.602,1.113,9.4,102.1311,4.738,6.014,57.48,0,109.8,13.5,5.51,304.4
"2009-10-23 01:00:30",1351127,3.394,337.6,6.902,1.252,6.732,102.1401,4.761,5.796,57.34,0,109.8,13.5,5.53,299.6
"2009-10-23 01:01:00",1351128,2.335,336.2,2.766,0.068,5.043,102.1495,4.785,5.771,57.34,0,109.8,13.53,5.55,298.2
"2009-10-23 01:01:30",1351129,2.437,337.3,2.232,0.06,5.209,102.1523,4.792,5.783,57.48,0,109.8,13.53,5.56,299.3
"2009-10-23 01:02:00",1351130,3.193,343.4,8.33,1.212,7.784,102.1616,4.816,5.943,57.66,0,109.8,13.5,5.58,305.4
"2009-10-23 01:02:30",1351131,3.751,346.9,6.916,1.292,9.28,102.1627,4.819,6.019,57.82,0,109.8,13.5,5.59,308.9
"2009-10-23 01:03:00",1351132,4.004,345.5,5.84,1.256,9.4,102.1639,4.822,6.072,57.9,0,109.8,13.5,5.59,307.5
"2009-10-23 01:03:30",1351133,4.202,350.7,6.676,1.213,9.28,102.163,4.819,6.056,57.73,0,109.8,13.5,5.59,312.7
"2009-10-23 01:04:00",1351134,3.882,350.7,6.517,1.165,8.14,102.1625,4.818,5.954,57.47,0,109.8,13.5,5.59,312.7
"2009-10-23 01:04:30",1351135,2.38,345.6,1.12,0.069,5.173,102.1633,4.82,5.822,57.19,0,109.8,13.54,5.59,307.6
"2009-10-23 01:05:00",1351136,2.308,344.9,1.538,0.082,5.361,102.1619,4.817,5.826,57.21,0,109.8,13.54,5.59,306.9
"2009-10-23 01:05:30",1351137,3.185,348,6.237,1.189,8.14,102.1707,4.839,6.07,57.47,0,109.8,13.5,5.61,310.0
"2009-10-23 01:06:00",1351138,3.857,349.8,6.134,1.215,9.47,102.1772,4.856,6.09,57.54,0,109.8,13.5,5.62,311.8
"2009-10-23 01:06:30",1351139,3.739,346.6,6.218,1.245,8.15,102.1775,4.856,5.95,57.29,0,109.8,13.5,5.63,308.6
"2009-10-23 01:07:00",1351140,3.597,347.8,5.945,1.234,8.42,102.1831,4.871,6.07,57.19,0,109.8,13.5,5.64,309.8
"2009-10-23 01:07:30",1351141,2.63,340.9,4.967,0.771,5.656,102.1896,4.887,5.971,56.99,0,109.8,13.5,5.66,302.9
"2009-10-23 01:08:00",1351142,3.736,348.3,6.145,1.232,7.415,102.1947,4.901,5.93,56.93,0,109.8,13.5,5.67,310.3
"2009-10-23 01:08:30",1351143,2.481,348.5,1.78,0.119,5.588,102.1987,4.911,5.881,56.97,0,109.8,13.54,5.68,310.5
"2009-10-23 01:09:00",1351144,3.524,0.162,7.89,1.266,8.61,102.1975,4.908,6.077,57.29,0,109.8,13.5,5.68,322.2
"2009-10-23 01:09:30",1351145,3.376,8.69,8.32,1.273,9.64,102.1973,4.907,6.115,57.32,0,109.8,13.5,5.68,330.7
"2009-10-23 01:10:00",1351146,3.128,16.21,6.942,1.274,9.59,102.199,4.911,6.053,57.25,0,109.8,13.5,5.68,338.2
"2009-10-23 01:10:30",1351147,1.833,10.53,10.68,1.267,7.589,102.1984,4.91,6.071,57.14,0,109.8,13.5,5.68,332.5
"2009-10-23 01:11:00",1351148,1.063,359.7,10.47,0.447,5.188,102.1996,4.913,5.937,56.26,0,109.8,13.54,5.68,321.7
"2009-10-23 01:11:30",1351149,1.932,356.1,8.12,0.953,5.805,102.2148,4.952,6.093,56.23,0,109.8,13.5,5.72,318.1
"2009-10-23 01:12:00",1351150,3.158,358.9,7.097,1.209,7.328,102.2281,4.986,5.952,56.48,0,109.8,13.5,5.76,320.9
"2009-10-23 01:12:30",1351151,2.578,2.727,5.744,1.107,7.038,102.2318,4.995,5.956,56.6,0,109.8,13.5,5.76,324.7
"2009-10-23 01:13:00",1351152,3.311,9.15,7.155,1.274,9.15,102.2315,4.994,6.232,57.03,0,109.9,13.5,5.76,331.1
"2009-10-23 01:13:30",1351153,3.516,10.27,8.23,1.127,9.75,102.2315,4.994,6.207,56.96,0,109.8,13.5,5.76,332.3
"2009-10-23 01:14:00",1351154,2.591,357.7,6.455,1.127,7.524,102.2315,4.994,6.16,56.71,0,109.8,13.5,5.76,319.7
"2009-10-23 01:14:30",1351155,2.317,355.8,6.674,0.997,5.997,102.2329,4.998,6.007,56.28,0,109.8,13.5,5.77,317.8
"2009-10-23 01:15:00",1351156,1.602,8.44,8.43,0.406,5.507,102.2357,5.005,6.015,55.95,0,109.8,13.53,5.77,330.4
"2009-10-23 01:15:30",1351157,0.965,7.718,10.04,0.884,6.655,102.247,5.034,6.191,55.99,0,109.8,13.5,5.80,329.7
"2009-10-23 01:16:00",1351158,1.745,6.411,18.11,1.18,7.667,102.264,5.077,6.126,55.97,0,109.8,13.5,5.85,328.4
"2009-10-23 01:16:30",1351159,2.457,353.2,5.777,1.095,6.744,102.2654,5.081,6.148,56.34,0,109.8,13.5,5.85,315.2
"2009-10-23 01:17:00",1351160,3.403,356.3,7.056,1.212,9.05,102.2654,5.081,6.319,56.56,0,109.8,13.51,5.85,318.3
"2009-10-23 01:17:30",1351161,4.057,358.2,5.198,1.172,9.75,102.266,5.082,6.297,56.62,0,109.8,13.5,5.85,320.2
"2009-10-23 01:18:00",1351162,2.584,348.7,6.424,0.921,6.838,102.2645,5.079,6.225,56.64,0,109.8,13.5,5.85,310.7
"2009-10-23 01:18:30",1351163,2.184,345.2,2.892,0.104,5.163,102.266,5.082,6.084,56.59,0,109.8,13.54,5.85,307.2
"2009-10-23 01:19:00",1351164,2.229,346.4,1.454,0.083,5.29,102.2651,5.08,6.098,56.59,0,109.8,13.54,5.85,308.4
"2009-10-23 01:19:30",1351165,3.253,351.3,6.126,1.238,7.381,102.271,5.095,6.213,56.68,0,109.8,13.51,5.87,313.3
"2009-10-23 01:20:00",1351166,4.124,356,5.317,1.171,9.72,102.2841,5.129,6.354,56.79,0,109.8,13.51,5.90,318.0
"2009-10-23 01:20:30",1351167,3.6,354.2,6.299,1.264,8.78,102.2886,5.14,6.344,56.55,0,109.8,13.51,5.91,316.2
"2009-10-23 01:21:00",1351168,3.978,357.7,6.158,1.167,9.25,102.2931,5.152,6.345,56.38,0,109.8,13.51,5.92,319.7
"2009-10-23 01:21:30",1351169,2.379,356.8,8.78,1.082,6.974,102.2973,5.162,6.227,56.1,0,109.8,13.51,5.93,318.8
"2009-10-23 01:22:00",1351170,1.996,350.2,1.899,0.186,5.252,102.2967,5.161,6.132,55.87,0,109.8,13.54,5.93,312.2
"2009-10-23 01:22:30",1351171,2.091,351.2,2.404,0.162,5.265,102.2961,5.159,6.157,55.59,0,109.8,13.54,5.93,313.2
"2009-10-23 01:23:00",1351172,2.178,349.9,2.121,0.463,5.714,102.2959,5.159,6.238,55.62,0,109.8,13.51,5.93,311.9
"2009-10-23 01:23:30",1351173,3.756,8.83,8.73,1.062,9.69,102.2973,5.162,6.383,55.72,0,109.8,13.51,5.93,330.8
"2009-10-23 01:24:00",1351174,3.512,18.74,8.05,1.051,10.14,102.2973,5.162,6.373,55.83,0,109.8,13.51,5.93,340.7
"2009-10-23 01:24:30",1351175,2.402,12.49,9.88,1.26,8.98,102.2964,5.16,6.402,56.06,0,109.8,13.51,5.93,334.5
"2009-10-23 01:25:00",1351176,2.359,7.028,14.42,1.212,8.17,102.2961,5.159,6.335,56.04,0,109.8,13.51,5.93,329.0
"2009-10-23 01:25:30",1351177,2.088,349.6,5.867,0.321,5.041,102.2967,5.161,6.18,55.87,0,109.8,13.54,5.93,311.6
"2009-10-23 01:26:00",1351178,2.14,350.1,4.761,0.389,5.047,102.2996,5.168,6.198,55.72,0,109.8,13.54,5.94,312.1
"2009-10-23 01:26:30",1351179,1.766,358.4,3.761,0.982,5.702,102.3049,5.182,6.184,55.43,0,109.8,13.51,5.95,320.4
"2009-10-23 01:27:00",1351180,3.185,356.7,6.416,1.398,7.998,102.3128,5.202,6.348,55.36,0,109.8,13.51,5.97,318.7
"2009-10-23 01:27:30",1351181,2.443,0.102,8.36,1.118,7.728,102.3185,5.216,6.324,55.19,0,109.8,13.51,5.99,322.1
"2009-10-23 01:28:00",1351182,4.102,2.872,5.761,0.93,10.38,102.3199,5.22,6.51,55.37,0,109.8,13.5,5.99,324.9
"2009-10-23 01:28:30",1351183,3.721,8.92,6.508,0.832,10.18,102.3239,5.23,6.496,55.2,0,109.8,13.5,6.00,330.9
"2009-10-23 01:29:00",1351184,1.403,359.3,3.718,0.139,5.772,102.3284,5.242,6.22,54.86,0,109.8,13.54,6.01,321.3
"2009-10-23 01:29:30",1351185,1.469,11.78,5.399,0.248,5.174,102.3258,5.235,6.236,55,0,109.8,13.54,6.01,333.8
"2009-10-23 01:30:00",1351186,2.038,18.91,6.696,1.147,5.955,102.3292,5.244,6.231,55.4,0,109.8,13.5,6.01,340.9
"2009-10-23 01:30:30",1351187,2.371,22.07,4.759,0.837,6.629,102.328,5.241,6.37,55.83,0,109.8,13.5,6.01,344.1
"2009-10-23 01:31:00",1351188,2.382,20.38,7.121,1.32,7.037,102.3289,5.243,6.239,55.88,0,109.8,13.5,6.01,342.4
"2009-10-23 01:31:30",1351189,2.732,20.8,11.55,1.527,8.55,102.3286,5.242,6.412,56.2,0,109.8,13.5,6.01,342.8
"2009-10-23 01:32:00",1351190,3.889,28.17,5.799,1.002,10.3,102.3298,5.245,6.573,56.36,0,109.8,13.5,6.02,350.2
"2009-10-23 01:32:30",1351191,3.436,20.25,10.61,1.186,9.6,102.3289,5.243,6.473,56.27,0,109.8,13.5,6.01,342.2
"2009-10-23 01:33:00",1351192,1.924,13.74,11.64,1.018,6.16,102.3292,5.244,6.253,55.96,0,109.8,13.51,6.01,335.7
"2009-10-23 01:33:30",1351193,1.193,11.43,4.916,0.179,5.301,102.3289,5.243,6.249,55.9,0,109.8,13.54,6.01,333.4
"2009-10-23 01:34:00",1351194,2.158,15.14,5.01,0.839,5.81,102.3278,5.24,6.293,55.94,0,109.8,13.51,6.01,337.1
"2009-10-23 01:34:30",1351195,3.75,25.42,7.095,1.284,8.06,102.3278,5.24,6.356,55.96,0,109.8,13.51,6.01,347.4
"2009-10-23 01:35:00",1351196,3.665,25.65,6.207,1.323,8.77,102.3275,5.239,6.494,56.03,0,109.8,13.51,6.01,347.6
"2009-10-23 01:35:30",1351197,3.966,25.08,7.44,1.221,8.91,102.328,5.241,6.368,55.86,0,109.8,13.51,6.01,347.1
"2009-10-23 01:36:00",1351198,3.497,29.27,11.47,1.288,8.84,102.328,5.241,6.477,55.71,0,109.8,13.51,6.01,351.3
"2009-10-23 01:36:30",1351199,1.891,9.66,8.81,1.222,8.02,102.3272,5.239,6.4,55.35,0,109.8,13.51,6.01,331.7
"2009-10-23 01:37:00",1351200,1.135,3.958,3.584,0.15,5.66,102.3275,5.239,6.253,55.24,0,109.8,13.54,6.01,326.0
"2009-10-23 01:37:30",1351201,1.022,5.297,5.265,0.172,5.512,102.3286,5.242,6.339,55.33,0,109.8,13.54,6.01,327.3
"2009-10-23 01:38:00",1351202,1.939,15.07,6.414,1.1,7.319,102.3292,5.244,6.321,55.33,0,109.8,13.51,6.01,337.1
"2009-10-23 01:38:30",1351203,1.542,14.2,2.906,0.185,5.66,102.3263,5.237,6.32,55.38,0,109.8,13.55,6.01,336.2
"2009-10-23 01:39:00",1351204,2.837,21.07,7.437,1.319,7.84,102.326,5.236,6.387,55.61,0,109.8,13.51,6.01,343.1
"2009-10-23 01:39:30",1351205,2.8,21.26,6.315,1.26,6.732,102.3266,5.237,6.307,55.72,0,109.8,13.51,6.01,343.3
"2009-10-23 01:40:00",1351206,2.472,18.05,7.358,1.171,8.18,102.328,5.241,6.354,55.78,0,109.8,13.51,6.01,340.0
"2009-10-23 01:40:30",1351207,1.761,7.752,6.427,1.106,7.693,102.326,5.236,6.383,55.69,0,109.8,13.51,6.01,329.8
"2009-10-23 01:41:00",1351208,1.845,2.47,5.942,1.06,6.735,102.3249,5.233,6.313,55.53,0,109.8,13.51,6.00,324.5
"2009-10-23 01:41:30",1351209,2.248,4.058,7.355,1.289,7.365,102.3266,5.237,6.39,55.51,0,109.8,13.51,6.01,326.1
"2009-10-23 01:42:00",1351210,1.64,3.914,4.279,0.835,5.711,102.324,5.231,6.235,55.28,0,109.8,13.51,6.00,325.9
"2009-10-23 01:42:30",1351211,2.369,13.56,8.03,1.281,7.446,102.3243,5.231,6.331,55.36,0,109.8,13.51,6.00,335.6
"2009-10-23 01:43:00",1351212,2.55,15.81,6.531,1.25,7.678,102.3229,5.228,6.37,55.48,0,109.8,13.51,6.00,337.8
"2009-10-23 01:43:30",1351213,2.771,14.61,6.266,1.387,7.999,102.3158,5.21,6.296,55.54,0,109.8,13.51,5.98,336.6
"2009-10-23 01:44:00",1351214,2.308,9.31,3.176,0.554,6.47,102.3167,5.212,6.359,55.62,0,109.8,13.51,5.98,331.3
"2009-10-23 01:44:30",1351215,3.866,17.88,6.564,1.317,9.85,102.3127,5.202,6.49,55.68,0,109.8,13.51,5.97,339.9
"2009-10-23 01:45:00",1351216,2.931,12.85,7.348,1.233,9.43,102.3119,5.2,6.442,55.56,0,109.8,13.5,5.97,334.9
"2009-10-23 01:45:30",1351217,2.1,13.12,9.1,1.232,7.602,102.3074,5.188,6.357,55.11,0,109.8,13.5,5.96,335.1
"2009-10-23 01:46:00",1351218,2.359,18.71,6.71,1.3,7.128,102.3054,5.183,6.362,55.02,0,109.8,13.5,5.95,340.7
"2009-10-23 01:46:30",1351219,1.959,17.09,4.971,0.889,6.377,102.298,5.164,6.36,55.46,0,109.8,13.5,5.93,339.1
"2009-10-23 01:47:00",1351220,2.449,19.4,4.755,0.92,6.232,102.2955,5.158,6.208,55.69,0,109.8,13.5,5.93,341.4
"2009-10-23 01:47:30",1351221,2.591,18.99,3.917,0.881,5.931,102.2924,5.15,6.23,55.9,0,109.8,13.51,5.92,341.0
"2009-10-23 01:48:00",1351222,3.689,28.77,8.56,1.304,8.44,102.2944,5.155,6.398,56.2,0,109.8,13.51,5.93,350.8
"2009-10-23 01:48:30",1351223,3.778,27.23,5.989,1.365,9.48,102.2935,5.153,6.523,56.39,0,109.8,13.51,5.92,349.2